WAT5643 KATL-KLAX

Flight info

Callsign WAT5643
Flight time N/A
Altitude 26000
Route NASSA2 YAALL J14 KOMMA/N0451F280 J14 PNH ACH ABQ J78 DRK GABBL HLYWD1
Aircraft A21N/M-SDE3FGHIJ5RWY/LB1

Departure

Time 2026-05-04 20:31
Airport Hartsfield Jackson Atlanta International Airport (KATL)

Arrival

Time N/A
Airport Los Angeles International Airport (KLAX)
Time Latitude Longitude Altitude Speed Heading
2026-05-04 20:06 33.64188 -84.42627 999 ft 0 kts 90°
2026-05-04 20:18 33.64188 -84.42626 999 ft 0 kts 90°
2026-05-04 20:18 33.64188 -84.42640 999 ft 2 kts 90°
2026-05-04 20:18 33.64188 -84.42657 1000 ft 2 kts 90°
2026-05-04 20:19 33.64188 -84.42673 1000 ft 2 kts 90°
2026-05-04 20:19 33.64188 -84.42689 1000 ft 2 kts 90°
2026-05-04 20:19 33.64188 -84.42704 1000 ft 2 kts 90°
2026-05-04 20:19 33.64188 -84.42715 1000 ft 1 kts 90°
2026-05-04 20:20 33.64183 -84.42730 1001 ft 2 kts 35°
2026-05-04 20:20 33.64173 -84.42735 1001 ft 0 kts 356°
2026-05-04 20:20 33.64167 -84.42734 1001 ft 0 kts
2026-05-04 20:22 33.64168 -84.42734 1001 ft 0 kts
2026-05-04 20:23 33.64176 -84.42734 1001 ft 2 kts
2026-05-04 20:23 33.64200 -84.42734 1000 ft 5 kts
2026-05-04 20:23 33.64240 -84.42734 1000 ft 7 kts
2026-05-04 20:23 33.64286 -84.42733 1000 ft 8 kts
2026-05-04 20:24 33.64336 -84.42732 1000 ft 8 kts
2026-05-04 20:24 33.64391 -84.42732 1000 ft 9 kts
2026-05-04 20:24 33.64447 -84.42723 999 ft 10 kts 31°
2026-05-04 20:24 33.64468 -84.42646 996 ft 13 kts 89°
2026-05-04 20:25 33.64469 -84.42542 992 ft 16 kts 90°
2026-05-04 20:25 33.64468 -84.42422 988 ft 17 kts 90°
2026-05-04 20:25 33.64468 -84.42297 982 ft 17 kts 89°
2026-05-04 20:25 33.64510 -84.42175 978 ft 19 kts 59°
2026-05-04 20:26 33.64542 -84.42039 973 ft 21 kts 91°
2026-05-04 20:26 33.64542 -84.41876 970 ft 22 kts 90°
2026-05-04 20:26 33.64542 -84.41730 969 ft 18 kts 90°
2026-05-04 20:26 33.64542 -84.41598 969 ft 18 kts 90°
2026-05-04 20:27 33.64542 -84.41467 970 ft 16 kts 90°
2026-05-04 20:27 33.64542 -84.41352 972 ft 15 kts 90°
2026-05-04 20:27 33.64542 -84.41248 973 ft 14 kts 90°
2026-05-04 20:27 33.64542 -84.41143 974 ft 13 kts 90°
2026-05-04 20:28 33.64542 -84.41056 976 ft 11 kts 90°
2026-05-04 20:28 33.64542 -84.40977 976 ft 11 kts 90°
2026-05-04 20:28 33.64542 -84.40888 974 ft 13 kts 90°
2026-05-04 20:28 33.64557 -84.40797 974 ft 12 kts 68°
2026-05-04 20:29 33.64570 -84.40710 975 ft 12 kts 90°
2026-05-04 20:29 33.64571 -84.40617 973 ft 13 kts 81°
2026-05-04 20:29 33.64629 -84.40569 974 ft 12 kts
2026-05-04 20:29 33.64677 -84.40600 977 ft 9 kts 280°
2026-05-04 20:30 33.64679 -84.40714 979 ft 38 kts 270°
2026-05-04 20:30 33.64679 -84.41174 981 ft 94 kts 271°
2026-05-04 20:30 33.64681 -84.41981 975 ft 142 kts 269°
2026-05-04 20:30 33.64677 -84.43102 1003 ft 181 kts 269°
2026-05-04 20:31 33.64676 -84.44414 1374 ft 187 kts 269°
2026-05-04 20:31 33.64695 -84.45758 1917 ft 187 kts 270°
2026-05-04 20:31 33.64831 -84.47134 2479 ft 190 kts 279°
2026-05-04 20:31 33.65089 -84.48472 2962 ft 194 kts 282°
2026-05-04 20:32 33.65379 -84.49864 3258 ft 207 kts 282°
2026-05-04 20:32 33.65682 -84.51350 3556 ft 222 kts 282°
2026-05-04 20:32 33.65996 -84.52957 3801 ft 240 kts 282°
2026-05-04 20:32 33.66324 -84.54685 4134 ft 256 kts 281°
2026-05-04 20:33 33.66671 -84.56549 4533 ft 269 kts 282°
2026-05-04 20:33 33.67024 -84.58452 5125 ft 273 kts 282°
2026-05-04 20:33 33.67363 -84.60374 5786 ft 274 kts 281°
2026-05-04 20:33 33.67696 -84.62337 6436 ft 276 kts 281°
2026-05-04 20:34 33.68023 -84.64283 7053 ft 278 kts 280°
2026-05-04 20:34 33.68347 -84.66202 7651 ft 281 kts 279°
2026-05-04 20:34 33.68682 -84.68189 8266 ft 283 kts 279°
2026-05-04 20:34 33.69014 -84.70155 8866 ft 285 kts 279°
2026-05-04 20:35 33.69354 -84.72169 9466 ft 287 kts 279°
2026-05-04 20:35 33.69676 -84.74159 10040 ft 289 kts 277°
2026-05-04 20:35 33.69899 -84.76209 10550 ft 293 kts 273°
2026-05-04 20:35 33.69996 -84.78307 10815 ft 306 kts 269°
2026-05-04 20:36 33.70002 -84.80565 11067 ft 319 kts 269°
2026-05-04 20:36 33.69991 -84.82894 11314 ft 333 kts 269°
2026-05-04 20:36 33.69978 -84.85323 11552 ft 346 kts 269°
2026-05-04 20:36 33.69966 -84.87882 11811 ft 358 kts 269°
2026-05-04 20:37 33.69957 -84.90444 12257 ft 363 kts 269°
2026-05-04 20:37 33.69948 -84.93066 12844 ft 364 kts 270°
2026-05-04 20:37 33.69940 -84.95743 13456 ft 365 kts 270°
2026-05-04 20:37 33.69933 -84.98400 14025 ft 366 kts 270°
2026-05-04 20:38 33.69928 -85.01073 14562 ft 368 kts 270°
2026-05-04 20:38 33.69922 -85.03754 15082 ft 370 kts 270°
2026-05-04 20:38 33.69915 -85.06442 15627 ft 372 kts 269°
2026-05-04 20:38 33.69907 -85.09126 16159 ft 374 kts 270°
2026-05-04 20:39 33.69899 -85.11811 16657 ft 375 kts 269°
2026-05-04 20:39 33.69888 -85.14485 17127 ft 378 kts 269°
2026-05-04 20:39 33.69877 -85.17222 17611 ft 379 kts 269°
2026-05-04 20:39 33.69865 -85.19985 18107 ft 381 kts 269°
2026-05-04 20:40 33.69852 -85.22701 18560 ft 382 kts 269°
2026-05-04 20:40 33.69828 -85.25478 19004 ft 384 kts 269°
2026-05-04 20:40 33.69797 -85.28258 19441 ft 386 kts 269°
2026-05-04 20:40 33.69764 -85.31037 19888 ft 388 kts 269°
2026-05-04 20:41 33.69730 -85.33836 20315 ft 389 kts 269°
2026-05-04 20:41 33.69696 -85.36633 20744 ft 390 kts 269°
2026-05-04 20:41 33.69662 -85.39421 21156 ft 392 kts 269°
2026-05-04 20:41 33.69629 -85.42224 21433 ft 397 kts 269°
2026-05-04 20:42 33.69595 -85.45051 21738 ft 400 kts 269°
2026-05-04 20:42 33.69559 -85.47944 22119 ft 401 kts 269°
2026-05-04 20:42 33.69522 -85.50842 22502 ft 403 kts 269°
2026-05-04 20:42 33.69487 -85.53690 22880 ft 404 kts 269°
2026-05-04 20:43 33.69449 -85.56589 23252 ft 405 kts 269°
2026-05-04 20:43 33.69412 -85.59508 23617 ft 406 kts 269°
2026-05-04 20:43 33.69374 -85.62392 23955 ft 407 kts 270°
2026-05-04 20:43 33.69335 -85.65222 24219 ft 410 kts 269°
2026-05-04 20:44 33.69296 -85.68098 24500 ft 412 kts 269°
2026-05-04 20:44 33.69255 -85.70940 24809 ft 414 kts 269°
2026-05-04 20:44 33.69216 -85.73764 25116 ft 415 kts 269°
2026-05-04 20:44 33.69175 -85.76678 25372 ft 416 kts 269°
2026-05-04 20:45 33.69134 -85.79540 25627 ft 418 kts 269°
2026-05-04 20:45 33.69091 -85.82365 25891 ft 419 kts 269°
2026-05-04 20:45 33.69048 -85.85250 26033 ft 421 kts 269°
2026-05-04 20:45 33.69003 -85.88139 26023 ft 421 kts 270°
2026-05-04 20:46 33.68959 -85.90998 26024 ft 420 kts 269°
2026-05-04 20:46 33.68914 -85.93893 26022 ft 420 kts 269°
2026-05-04 20:46 33.68869 -85.96736 26019 ft 420 kts 269°
2026-05-04 20:46 33.68814 -85.99998 26006 ft 420 kts 269°
2026-05-04 20:47 33.68816 -86.03150 26010 ft 420 kts 272°
2026-05-04 20:47 33.68915 -86.06009 26007 ft 420 kts 274°
2026-05-04 20:47 33.69102 -86.08867 26003 ft 419 kts 275°
2026-05-04 20:47 33.69324 -86.11757 26007 ft 419 kts 276°
2026-05-04 20:48 33.69548 -86.14580 26002 ft 418 kts 276°
2026-05-04 20:48 33.69774 -86.17427 26003 ft 419 kts 276°
2026-05-04 20:48 33.69997 -86.20262 26004 ft 419 kts 276°
2026-05-04 20:48 33.70221 -86.23122 26002 ft 419 kts 276°
2026-05-04 20:49 33.70444 -86.25993 26010 ft 420 kts 275°
2026-05-04 20:49 33.70671 -86.28893 26011 ft 419 kts 276°
2026-05-04 20:49 33.70894 -86.31763 26011 ft 418 kts 275°
2026-05-04 20:49 33.71116 -86.34648 26009 ft 419 kts 276°
2026-05-04 20:50 33.71334 -86.37478 26015 ft 418 kts 276°
2026-05-04 20:50 33.71551 -86.40301 26011 ft 419 kts 276°
2026-05-04 20:50 33.71774 -86.43209 26011 ft 419 kts 276°
2026-05-04 20:50 33.71991 -86.46057 26011 ft 418 kts 276°
2026-05-04 20:51 33.72210 -86.48942 26014 ft 419 kts 276°
2026-05-04 20:51 33.72426 -86.51810 26013 ft 419 kts 276°
2026-05-04 20:51 33.72644 -86.54693 26017 ft 418 kts 276°
2026-05-04 20:51 33.72880 -86.57817 26016 ft 418 kts 276°
2026-05-04 20:52 33.73092 -86.60648 26015 ft 419 kts 276°
2026-05-04 20:52 33.73307 -86.63487 26011 ft 418 kts 276°
2026-05-04 20:52 33.73521 -86.66373 26015 ft 418 kts 275°
2026-05-04 20:52 33.73730 -86.69181 26016 ft 419 kts 275°
2026-05-04 20:53 33.73940 -86.72028 26011 ft 418 kts 275°
2026-05-04 20:53 33.74149 -86.74866 26009 ft 419 kts 275°
2026-05-04 20:53 33.74358 -86.77715 26009 ft 419 kts 275°
2026-05-04 20:53 33.74569 -86.80581 26004 ft 419 kts 275°
2026-05-04 20:54 33.74781 -86.83476 25996 ft 419 kts 275°
2026-05-04 20:54 33.74991 -86.86350 25995 ft 419 kts 275°
2026-05-04 20:54 33.75198 -86.89217 25997 ft 419 kts 275°
2026-05-04 20:54 33.75410 -86.92135 25990 ft 419 kts 275°
2026-05-04 20:55 33.75623 -86.95060 25991 ft 419 kts 275°
2026-05-04 20:55 33.75828 -86.97938 25984 ft 420 kts 276°
2026-05-04 20:55 33.76042 -87.00912 25988 ft 419 kts 275°
2026-05-04 20:55 33.76249 -87.03800 25991 ft 419 kts 276°
2026-05-04 20:56 33.76454 -87.06684 25988 ft 418 kts 275°
2026-05-04 20:56 33.76663 -87.09596 25981 ft 418 kts 275°
2026-05-04 20:56 33.76864 -87.12450 25980 ft 419 kts 276°
2026-05-04 20:56 33.77069 -87.15349 25988 ft 418 kts 276°
2026-05-04 20:57 33.77276 -87.18279 25991 ft 418 kts 276°
2026-05-04 20:57 33.77473 -87.21091 25985 ft 418 kts 276°
2026-05-04 20:57 33.77674 -87.23974 25990 ft 418 kts 275°
2026-05-04 20:57 33.77874 -87.26841 25996 ft 418 kts 276°
2026-05-04 20:58 33.78079 -87.29785 25993 ft 418 kts 276°
2026-05-04 20:58 33.78283 -87.32712 25996 ft 417 kts 276°
2026-05-04 20:58 33.78485 -87.35635 26001 ft 417 kts 276°
2026-05-04 20:58 33.78683 -87.38513 26004 ft 417 kts 276°
2026-05-04 20:59 33.78881 -87.41433 26080 ft 421 kts 276°
2026-05-04 20:59 33.79108 -87.44307 26338 ft 421 kts 277°
2026-05-04 20:59 33.79429 -87.47221 26644 ft 421 kts 279°
2026-05-04 20:59 33.79847 -87.50142 26890 ft 421 kts 282°
2026-05-04 21:00 33.80354 -87.52980 27124 ft 422 kts 284°
2026-05-04 21:00 33.80949 -87.55890 27347 ft 423 kts 284°
2026-05-04 21:00 33.81542 -87.58740 27592 ft 424 kts 284°
2026-05-04 21:00 33.82140 -87.61603 27868 ft 423 kts 284°
2026-05-04 21:01 33.82742 -87.64488 27964 ft 423 kts 284°
2026-05-04 21:01 33.83343 -87.67371 27963 ft 422 kts 284°
2026-05-04 21:01 33.83946 -87.70273 27964 ft 421 kts 284°
2026-05-04 21:01 33.84553 -87.73196 27976 ft 421 kts 284°
2026-05-04 21:02 33.85162 -87.76133 27966 ft 422 kts 284°
2026-05-04 21:02 33.85757 -87.79014 27968 ft 422 kts 284°
2026-05-04 21:02 33.86356 -87.81917 27975 ft 421 kts 284°
2026-05-04 21:02 33.86961 -87.84843 27977 ft 421 kts 284°
2026-05-04 21:03 33.87550 -87.87711 27970 ft 421 kts 284°
2026-05-04 21:03 33.88164 -87.90692 27975 ft 421 kts 284°
2026-05-04 21:03 33.88762 -87.93600 27977 ft 420 kts 284°
2026-05-04 21:03 33.89363 -87.96524 27977 ft 421 kts 284°
2026-05-04 21:04 33.89964 -87.99451 27974 ft 420 kts 284°
2026-05-04 21:04 33.90564 -88.02391 27969 ft 421 kts 284°
2026-05-04 21:04 33.91161 -88.05310 27971 ft 419 kts 284°
2026-05-04 21:04 33.91752 -88.08210 27975 ft 420 kts 284°
2026-05-04 21:05 33.92350 -88.11151 27983 ft 420 kts 284°
2026-05-04 21:05 33.92947 -88.14084 27961 ft 421 kts 284°
2026-05-04 21:05 33.93548 -88.17039 27969 ft 420 kts 284°
2026-05-04 21:05 33.94146 -88.19985 27963 ft 420 kts 284°
2026-05-04 21:06 33.94739 -88.22914 27961 ft 420 kts 284°
2026-05-04 21:06 33.95346 -88.25905 27968 ft 420 kts 284°
2026-05-04 21:06 33.95937 -88.28826 27952 ft 420 kts 284°
2026-05-04 21:06 33.96534 -88.31792 27960 ft 420 kts 284°
2026-05-04 21:07 33.97123 -88.34718 27958 ft 420 kts 284°
2026-05-04 21:07 33.97727 -88.37717 27950 ft 420 kts 284°
2026-05-04 21:07 33.98317 -88.40646 27953 ft 419 kts 284°
2026-05-04 21:07 33.98913 -88.43617 27957 ft 418 kts 284°
2026-05-04 21:08 33.99491 -88.46493 27965 ft 418 kts 284°
2026-05-04 21:08 34.00086 -88.49464 27944 ft 419 kts 284°
2026-05-04 21:08 34.00685 -88.52462 27950 ft 419 kts 284°
2026-05-04 21:08 34.01272 -88.55400 27950 ft 418 kts 284°
2026-05-04 21:09 34.01865 -88.58372 27957 ft 419 kts 284°
2026-05-04 21:09 34.02457 -88.61343 27960 ft 419 kts 284°
2026-05-04 21:09 34.03053 -88.64336 27955 ft 419 kts 284°
2026-05-04 21:09 34.03635 -88.67266 27956 ft 419 kts 284°
2026-05-04 21:10 34.04225 -88.70237 27951 ft 419 kts 284°
2026-05-04 21:10 34.04818 -88.73229 27946 ft 418 kts 284°
2026-05-04 21:10 34.05393 -88.76137 27961 ft 418 kts 284°
2026-05-04 21:10 34.05986 -88.79128 27957 ft 418 kts 284°
2026-05-04 21:11 34.06575 -88.82114 27958 ft 418 kts 284°
2026-05-04 21:11 34.07160 -88.85085 27958 ft 418 kts 284°
2026-05-04 21:11 34.07746 -88.88070 27948 ft 418 kts 284°
2026-05-04 21:11 34.08326 -88.91015 27945 ft 417 kts 284°
2026-05-04 21:12 34.08904 -88.93958 27954 ft 417 kts 284°
2026-05-04 21:12 34.09483 -88.96915 27959 ft 417 kts 284°
2026-05-04 21:12 34.10071 -88.99910 27957 ft 418 kts 284°
2026-05-04 21:12 34.10639 -89.02811 27952 ft 417 kts 284°
2026-05-04 21:13 34.11215 -89.05761 27958 ft 418 kts 284°
2026-05-04 21:13 34.11786 -89.08679 27950 ft 419 kts 284°
2026-05-04 21:13 34.12369 -89.11679 27942 ft 419 kts 284°
2026-05-04 21:13 34.12944 -89.14637 27933 ft 418 kts 284°
2026-05-04 21:14 34.13519 -89.17604 27942 ft 417 kts 284°
2026-05-04 21:14 34.14093 -89.20561 27934 ft 417 kts 284°
2026-05-04 21:14 34.14662 -89.23504 27934 ft 416 kts 284°
2026-05-04 21:14 34.15241 -89.26499 27930 ft 416 kts 284°
2026-05-04 21:15 34.15809 -89.29436 27944 ft 416 kts 285°
2026-05-04 21:15 34.16383 -89.32404 27931 ft 416 kts 285°
2026-05-04 21:15 34.16958 -89.35382 27945 ft 415 kts 285°
2026-05-04 21:15 34.17528 -89.38341 27943 ft 416 kts 284°
2026-05-04 21:16 34.18079 -89.41204 27945 ft 417 kts 284°
2026-05-04 21:16 34.18653 -89.44203 27945 ft 417 kts 285°
2026-05-04 21:16 34.19218 -89.47154 27932 ft 416 kts 284°
2026-05-04 21:16 34.19786 -89.50121 27931 ft 416 kts 284°
2026-05-04 21:17 34.20406 -89.53103 27945 ft 414 kts 287°
2026-05-04 21:17 34.21111 -89.56079 27939 ft 414 kts 288°
2026-05-04 21:17 34.21815 -89.58988 27939 ft 415 kts 288°
2026-05-04 21:17 34.22523 -89.61901 27930 ft 415 kts 288°
2026-05-04 21:18 34.23223 -89.64791 27928 ft 415 kts 288°
2026-05-04 21:18 34.23931 -89.67710 27926 ft 415 kts 287°
2026-05-04 21:18 34.24638 -89.70625 27930 ft 414 kts 287°
2026-05-04 21:18 34.25357 -89.73583 27924 ft 413 kts 287°
2026-05-04 21:19 34.26057 -89.76478 27931 ft 413 kts 288°
2026-05-04 21:19 34.26771 -89.79443 27924 ft 413 kts 288°
2026-05-04 21:19 34.27476 -89.82365 27919 ft 414 kts 288°
2026-05-04 21:19 34.28175 -89.85267 27927 ft 413 kts 288°
2026-05-04 21:20 34.28891 -89.88236 27931 ft 413 kts 288°
2026-05-04 21:20 34.29596 -89.91171 27942 ft 413 kts 287°
2026-05-04 21:20 34.30304 -89.94113 27939 ft 413 kts 288°
2026-05-04 21:20 34.31014 -89.97073 27939 ft 413 kts 287°
2026-05-04 21:21 34.31706 -89.99971 27943 ft 413 kts 288°
2026-05-04 21:21 34.32407 -90.02898 27939 ft 413 kts 288°
2026-05-04 21:21 34.33086 -90.05745 27933 ft 412 kts 288°
2026-05-04 21:21 34.33792 -90.08707 27935 ft 412 kts 288°
2026-05-04 21:22 34.34474 -90.11564 27919 ft 411 kts 288°
2026-05-04 21:22 34.35177 -90.14524 27925 ft 411 kts 288°
2026-05-04 21:22 34.35867 -90.17428 27921 ft 409 kts 288°
2026-05-04 21:22 34.36544 -90.20284 27926 ft 411 kts 288°
2026-05-04 21:23 34.37222 -90.23142 27916 ft 411 kts 288°
2026-05-04 21:23 34.37912 -90.26055 27920 ft 410 kts 288°
2026-05-04 21:23 34.38601 -90.28973 27914 ft 411 kts 288°
2026-05-04 21:23 34.39284 -90.31860 27924 ft 411 kts 288°